Regional Weather Roundup
Issued by NWS Little Rock, AR

Home | Current Version | Previous Version | Text Only | Print | Product List | Glossary Off
Versions: 1 2 3 4 5 6 7 8 9 10 11 12 13 14 15 16 17 18 19 20 21 22 23 24 25 26 27 28 29 30 31 32 33 34 35 36 37 38 39 40 41 42 43 44 45 46 47 48 49 50

000
ASUS44 KLZK 210605
RWRLZK

WEATHER ROUNDUP FOR ARKANSAS
NATIONAL WEATHER SERVICE LITTLE ROCK AR
100 AM CDT THU AUG 21 2014

NOTE: "FAIR" INDICATES FEW OR NO CLOUDS BELOW 12,000 FEET WITH NO
SIGNIFICANT WEATHER AND/OR OBSTRUCTIONS TO VISIBILITY.

ARZ001-003-010-029-210700-
NORTHWEST ARKANSAS

CITY           SKY/WX    TMP DP  RH WIND       PRES   REMARKS
FAYETTEVILLE   FAIR      77  70  79 S9        30.02S
6HR MIN TEMP:  76; 6HR MAX TEMP:  85;

FORT SMITH     FAIR      77  71  82 E6        29.98S
6HR MIN TEMP:  77; 6HR MAX TEMP:  90;

HARRISON       FAIR      75  70  84 S3        30.03F
6HR MIN TEMP:  75; 6HR MAX TEMP:  83;

BENTONVILLE    FAIR      77  68  73 S8        30.02S
6HR MIN TEMP:  75; 6HR MAX TEMP:  88;

ROGERS         FAIR      76  67  73 SE8       30.03S
6HR MIN TEMP:  76; 6HR MAX TEMP:  87;

SILOAM SPGS    FAIR      77  64  65 S8        30.02S
6HR MIN TEMP:  77; 6HR MAX TEMP:  86;

HIGHFILL       FAIR      75  67  76 S9        30.01S
6HR MIN TEMP:  75; 6HR MAX TEMP:  85;

$$

ARZ004-005-016-210700-
NORTH CENTRAL ARKANSAS

CITY           SKY/WX    TMP DP  RH WIND       PRES   REMARKS
BATESVILLE     FAIR      79  72  78 S3        30.02F
6HR MIN TEMP:  79; 6HR MAX TEMP:  90;

FLIPPIN        FAIR      79  64  61 S3        30.01F
6HR MIN TEMP:  79; 6HR MAX TEMP:  91;

MTN HOME       FAIR      76  67  73 S7        30.01F
6HR MIN TEMP:  76; 6HR MAX TEMP:  88;

$$

ARZ040-041-210700-
WEST CENTRAL ARKANSAS

CITY           SKY/WX    TMP DP  RH WIND       PRES   REMARKS
MENA           FAIR      82  72  69 CALM      30.04R HX  87
MOUNT IDA      FAIR      81  71  71 VRB3      30.01S HX  85
6HR MIN TEMP:  77; 6HR MAX TEMP:  86;

$$

ARZ009-017-025-026-028-210700-
NORTHEAST ARKANSAS

CITY           SKY/WX    TMP DP  RH WIND       PRES   REMARKS
CORNING        FAIR      77  73  88 SW9       30.01S
JONESBORO      FAIR      80  73  79 SW9       30.02S
6HR MIN TEMP:  77; 6HR MAX TEMP:  88;

NEWPORT        FAIR      78  75  90 S5        30.02F
6HR MIN TEMP:  77; 6HR MAX TEMP:  89;

WALNUT RIDGE   FAIR      77  72  83 S8        30.01S
6HR MIN TEMP:  77; 6HR MAX TEMP:  88;

BLYTHEVILLE    FAIR      78  74  87 S6        30.03S
6HR MIN TEMP:  78; 6HR MAX TEMP:  87;

$$

ARZ022-023-033-042-044-210700-
CENTRAL ARKANSAS

CITY           SKY/WX    TMP DP  RH WIND       PRES   REMARKS
LITTLE ROCK    FAIR      78  73  84 S6        30.02S
6HR MIN TEMP:  78; 6HR MAX TEMP:  88;

N LITTLE ROCK    N/A     79  75  86 S7        30.02S
6HR MIN TEMP:  79; 6HR MAX TEMP:  88;

JACKSONVILLE   FAIR      76  74  95 SE2       30.03R
6HR MIN TEMP:  75; 6HR MAX TEMP:  88; 6HR PCP: TRACE;

SEARCY           N/A     76  75  96 CALM        N/A
6HR MIN TEMP:  76; 6HR MAX TEMP:  88;

HOT SPRINGS    FAIR      81  72  74 S8        30.04R HX  85
6HR MIN TEMP:  81; 6HR MAX TEMP:  88;

RUSSELLVILLE   FAIR      76  72  87 CALM      30.01S
6HR MIN TEMP:  76; 6HR MAX TEMP:  88;

CLINTON        FAIR      72  70  94 CALM      30.03F
$$

ARZ036-210700-
EAST ARKANSAS

CITY           SKY/WX    TMP DP  RH WIND       PRES   REMARKS
WEST MEMPHIS   FAIR      76  74  93 S5        30.03S
6HR MIN TEMP:  76; 6HR MAX TEMP:  87;

$$

ARZ050-053-066-070-073-210700-
SOUTHWEST ARKANSAS

CITY           SKY/WX    TMP DP  RH WIND       PRES   REMARKS
ARKADELPHIA    FAIR      77  74  90 S5        30.04R
6HR MIN TEMP:  77; 6HR MAX TEMP:  89; 6HR PCP: TRACE;

CAMDEN         FAIR      75  66  73 S6        30.04S
TEXARKANA      FAIR      77  68  73 S6        30.03S
6HR MIN TEMP:  77; 6HR MAX TEMP:  90;

EL DORADO      FAIR      73  68  84 S3        30.06S
6HR MIN TEMP:  73; 6HR MAX TEMP:  88;

DE QUEEN       FAIR      79  71  76 S5        30.00R
6HR MIN TEMP:  78; 6HR MAX TEMP:  87;

$$

ARZ056-057-069-210700-
SOUTHEAST ARKANSAS

CITY           SKY/WX    TMP DP  RH WIND       PRES   REMARKS
PINE BLUFF     FAIR      75  72  90 S5        30.03S
6HR MIN TEMP:  75; 6HR MAX TEMP:  87;

STUTTGART      FAIR      79  72  78 SE5       30.03S
6HR MIN TEMP:  77; 6HR MAX TEMP:  90;

MONTICELLO     FAIR      78  72  81 S7        30.05S
6HR MIN TEMP:  77; 6HR MAX TEMP:  89;


$$





USA.gov is the U.S. government's official web portal to all federal, state and local government web resources and services.